Orbital Elements at Epoch 2459200.5 (2020-Dec-17.0) TDB
Reference: JPL 20 (heliocentric ecliptic J2000)
Element | Value | Uncertainty (1-sigma) | Units |
e | .06023472162014865 | 5.4034e-08 | |
a | 5.210773447569308 | 1.1676e-07 | au |
q | 4.896903959529308 | 3.062e-07 | au |
i | 7.939058663479836 | 5.4838e-06 | deg |
node | 309.307751165082 | 4.5066e-05 | deg |
peri | 194.0875396236543 | 7.4157e-05 | deg |
M | 242.6248165716071 | 6.2613e-05 | deg |
tp | 2460617.029088642717 (2024-Nov-02.52908864) | 0.00078864 | TDB |
period | 4344.619169200139 11.89 | 0.00014602 3.998e-07 | d yr |
n | .08286111762156528 | 2.785e-09 | deg/d |
Q | 5.524642935609308 | 1.2379e-07 | au |
|
| | Orbit Determination Parameters
Additional Information
|